This is the latest recevied weather packets stored in our database for station/object W4BOD. If no packets are shown the sender has not sent any weather packets the latest 10 day(s).
| Time | Temp. | Humidity | Pressure | Rain* | Wind** | Luminosity | Snow |
|---|---|---|---|---|---|---|---|
| 1777899461 | 15° C | 76% | 1014.8 hPa | 0 mm | - | 93 W/m² | - |
| 1777899159 | 14.44° C | 76% | 1014.7 hPa | 0 mm | - | 90 W/m² | - |
| 1777898856 | 14.44° C | 77% | 1014.9 hPa | 0 mm | - | 87 W/m² | - |
| 1777898554 | 13.89° C | 77% | 1014.9 hPa | 0 mm | - | 93 W/m² | - |
| 1777898251 | 13.89° C | 77% | 1014.7 hPa | 0 mm | - | 94 W/m² | - |
| 1777897948 | 13.33° C | 77% | 1014.6 hPa | 0 mm | - | 92 W/m² | - |
| 1777897644 | 13.33° C | 78% | 1014.8 hPa | 0 mm | - | 90 W/m² | - |
| 1777897340 | 12.78° C | 79% | 1014.6 hPa | 0 mm | - | 84 W/m² | - |
| 1777897036 | 12.78° C | 79% | 1014.8 hPa | 0 mm | - | 77 W/m² | - |
| 1777896734 | 12.78° C | 79% | 1015 hPa | 0 mm | - | 74 W/m² | - |
| 1777896430 | 12.78° C | 80% | 1014.7 hPa | 0 mm | - | 70 W/m² | - |
| 1777896128 | 12.22° C | 79% | 1014.9 hPa | 0 mm | - | 65 W/m² | - |
| 1777895826 | 12.22° C | 79% | 1014.6 hPa | 0 mm | - | 61 W/m² | - |
| 1777895523 | 12.22° C | 80% | 1014.8 hPa | 0 mm | - | 56 W/m² | - |
| 1777895220 | 12.22° C | 81% | 1014.7 hPa | 0 mm | - | 49 W/m² | - |
| 1777894918 | 12.22° C | 80% | 1014.5 hPa | 0 mm | - | 41 W/m² | - |
| 1777894615 | 11.67° C | 81% | 1014.7 hPa | 0 mm | - | 35 W/m² | - |
| 1777894312 | 11.67° C | 81% | 1014.6 hPa | 0 mm | - | 32 W/m² | - |
| 1777894009 | 11.67° C | 81% | 1014.4 hPa | 0 mm | - | 30 W/m² | - |
| 1777893705 | 11.67° C | 82% | 1014.5 hPa | 0 mm | - | 26 W/m² | - |
| 1777893402 | 11.67° C | 82% | 1014.5 hPa | 0 mm | - | 20 W/m² | - |
| 1777893098 | 11.67° C | 83% | 1014.3 hPa | 0 mm | - | 15 W/m² | - |
| 1777892795 | 11.67° C | 82% | 1014.2 hPa | 0 mm | - | 11 W/m² | - |
| 1777892491 | 11.11° C | 84% | 1014.2 hPa | 0 mm | - | 7 W/m² | - |
| 1777892187 | 11.11° C | 84% | 1014 hPa | 0 mm | - | 5 W/m² | - |
* Rain latest hour (hover to see other rain measurements)
** Current wind speed in m/s (hover to see current wind gust speed)